RZO512 LPPD-LFPG

Flight info

Callsign RZO512
Flight time N/A
Altitude 39000
Route BAVAS DCT GONAN DCT SIVIR UN460 RIVAK/N0447F380 DCT NOVAN DCT AZFIC UN741 NTS/N0453F300 UN741 KEPER
Aircraft A20N/M-SDE2E3FGHIRWXY/LB1

Departure

Time 2026-05-08 06:46
Airport João Paulo II Airport (LPPD)

Arrival

Time N/A
Airport Charles de Gaulle International Airport (LFPG)
Time Latitude Longitude Altitude Speed Heading
2026-05-08 06:34 37.74882 -25.71113 273 ft 0 kts 22°
2026-05-08 06:38 37.74879 -25.71115 271 ft 3 kts 22°
2026-05-08 06:38 37.74858 -25.71126 271 ft 3 kts 25°
2026-05-08 06:39 37.74838 -25.71141 274 ft 3 kts 44°
2026-05-08 06:39 37.74825 -25.71163 275 ft 3 kts 80°
2026-05-08 06:39 37.74825 -25.71183 278 ft 1 kts 111°
2026-05-08 06:39 37.74827 -25.71187 278 ft 0 kts 111°
2026-05-08 06:43 37.74813 -25.71144 266 ft 10 kts 111°
2026-05-08 06:43 37.74791 -25.71072 271 ft 8 kts 111°
2026-05-08 06:44 37.74751 -25.71022 271 ft 11 kts 166°
2026-05-08 06:44 37.74670 -25.71024 271 ft 11 kts 181°
2026-05-08 06:44 37.74602 -25.71011 272 ft 9 kts 150°
2026-05-08 06:44 37.74576 -25.70957 271 ft 0 kts 111°
2026-05-08 06:46 37.74554 -25.70887 270 ft 41 kts 111°
2026-05-08 06:46 37.74341 -25.70200 245 ft 125 kts 112°
2026-05-08 06:46 37.73948 -25.68914 368 ft 177 kts 110°
2026-05-08 06:46 37.73445 -25.67400 867 ft 197 kts 108°
2026-05-08 06:47 37.72900 -25.65752 1324 ft 210 kts 98°
2026-05-08 06:47 37.73013 -25.63971 1602 ft 206 kts 51°
2026-05-08 06:47 37.73999 -25.62622 1984 ft 219 kts 36°
2026-05-08 06:47 37.75130 -25.61203 2574 ft 235 kts 39°
2026-05-08 06:48 37.76242 -25.59660 3430 ft 239 kts 41°
2026-05-08 06:48 37.77341 -25.58060 4324 ft 243 kts 42°
2026-05-08 06:48 37.78444 -25.56417 5165 ft 247 kts 42°
2026-05-08 06:48 37.79556 -25.54745 6043 ft 250 kts 42°
2026-05-08 06:49 37.80686 -25.53044 6830 ft 254 kts 43°
2026-05-08 06:49 37.81819 -25.51336 7607 ft 258 kts 42°
2026-05-08 06:49 37.82976 -25.49581 8445 ft 261 kts 42°
2026-05-08 06:49 37.84149 -25.47801 9218 ft 266 kts 43°
2026-05-08 06:50 37.85347 -25.45989 9992 ft 270 kts 42°
2026-05-08 06:50 37.86604 -25.44104 10258 ft 291 kts 43°
2026-05-08 06:50 37.87968 -25.42067 10440 ft 314 kts 43°
2026-05-08 06:50 37.89423 -25.39883 10713 ft 331 kts 44°
2026-05-08 06:51 37.90900 -25.37642 11278 ft 338 kts 44°
2026-05-08 06:51 37.92409 -25.35337 11948 ft 341 kts 44°
2026-05-08 06:51 37.93931 -25.33008 12627 ft 344 kts 44°
2026-05-08 06:51 37.95465 -25.30665 13307 ft 347 kts 44°
2026-05-08 06:52 37.97020 -25.28296 13955 ft 350 kts 44°
2026-05-08 06:52 37.98565 -25.25947 14549 ft 352 kts 44°
2026-05-08 06:52 38.00138 -25.23551 15142 ft 354 kts 44°
2026-05-08 06:52 38.01722 -25.21138 15725 ft 357 kts 44°
2026-05-08 06:53 38.03315 -25.18711 16307 ft 359 kts 44°
2026-05-08 06:53 38.04918 -25.16268 16878 ft 361 kts 44°
2026-05-08 06:53 38.06533 -25.13803 17438 ft 364 kts 44°
2026-05-08 06:53 38.08155 -25.11327 18002 ft 366 kts 44°
2026-05-08 06:54 38.09788 -25.08832 18492 ft 368 kts 44°
2026-05-08 06:54 38.11433 -25.06317 18969 ft 370 kts 44°
2026-05-08 06:54 38.13062 -25.03824 19443 ft 372 kts 43°
2026-05-08 06:54 38.14719 -25.01288 19963 ft 373 kts 44°
2026-05-08 06:55 38.16382 -24.98741 20426 ft 375 kts 44°
2026-05-08 06:55 38.18052 -24.96177 20883 ft 377 kts 44°
2026-05-08 06:55 38.19730 -24.93597 21322 ft 380 kts 44°
2026-05-08 06:55 38.21415 -24.91005 21760 ft 382 kts 44°
2026-05-08 06:56 38.23112 -24.88392 22194 ft 384 kts 44°
2026-05-08 06:56 38.24821 -24.85758 22626 ft 386 kts 44°
2026-05-08 06:56 38.26534 -24.83119 23062 ft 388 kts 44°
2026-05-08 06:56 38.28258 -24.80459 23456 ft 390 kts 44°
2026-05-08 06:57 38.29991 -24.77783 23791 ft 392 kts 44°
2026-05-08 06:57 38.31729 -24.75098 24133 ft 393 kts 44°
2026-05-08 06:57 38.33475 -24.72402 24480 ft 395 kts 43°
2026-05-08 06:57 38.35205 -24.69731 24863 ft 396 kts 44°
2026-05-08 06:58 38.36971 -24.67000 25133 ft 400 kts 44°
2026-05-08 06:58 38.38742 -24.64256 25434 ft 402 kts 44°
2026-05-08 06:58 38.40525 -24.61483 25751 ft 403 kts 44°
2026-05-08 06:58 38.42307 -24.58708 26081 ft 405 kts 44°
2026-05-08 06:59 38.44095 -24.55924 26388 ft 406 kts 44°
2026-05-08 06:59 38.45870 -24.53161 26712 ft 407 kts 44°
2026-05-08 06:59 38.47667 -24.50362 27011 ft 409 kts 44°
2026-05-08 06:59 38.49492 -24.47517 27351 ft 409 kts 44°
2026-05-08 07:00 38.51272 -24.44742 27651 ft 410 kts 44°
2026-05-08 07:00 38.53083 -24.41925 27951 ft 411 kts 44°
2026-05-08 07:00 38.54901 -24.39095 28238 ft 412 kts 44°
2026-05-08 07:00 38.56724 -24.36254 28518 ft 414 kts 44°
2026-05-08 07:01 38.58557 -24.33397 28743 ft 417 kts 44°
2026-05-08 07:01 38.60395 -24.30522 28986 ft 418 kts 44°
2026-05-08 07:01 38.62238 -24.27634 29239 ft 420 kts 44°
2026-05-08 07:01 38.64082 -24.24732 29504 ft 420 kts 44°
2026-05-08 07:02 38.65904 -24.21860 29860 ft 419 kts 44°
2026-05-08 07:02 38.67738 -24.18970 30187 ft 417 kts 44°
2026-05-08 07:02 38.69568 -24.16088 30457 ft 417 kts 44°
2026-05-08 07:02 38.71396 -24.13211 30720 ft 417 kts 44°
2026-05-08 07:03 38.73225 -24.10331 30993 ft 416 kts 44°
2026-05-08 07:03 38.75055 -24.07452 31255 ft 416 kts 44°
2026-05-08 07:03 38.76883 -24.04573 31525 ft 417 kts 45°
2026-05-08 07:03 38.78720 -24.01676 31690 ft 420 kts 45°
2026-05-08 07:04 38.80559 -23.98759 31915 ft 420 kts 45°
2026-05-08 07:04 38.82375 -23.95872 32205 ft 419 kts 45°
2026-05-08 07:04 38.84208 -23.92967 32484 ft 418 kts 44°
2026-05-08 07:04 38.86039 -23.90071 32748 ft 418 kts 44°
2026-05-08 07:05 38.87868 -23.87170 33002 ft 418 kts 45°
2026-05-08 07:05 38.89700 -23.84261 33260 ft 418 kts 44°
2026-05-08 07:05 38.91524 -23.81363 33513 ft 418 kts 45°
2026-05-08 07:05 38.93348 -23.78457 33768 ft 418 kts 45°
2026-05-08 07:06 38.95174 -23.75549 33978 ft 418 kts 45°
2026-05-08 07:06 38.97000 -23.72636 34149 ft 420 kts 45°
2026-05-08 07:06 38.98842 -23.69698 34266 ft 422 kts 45°
2026-05-08 07:06 39.00699 -23.66765 34410 ft 423 kts 44°
2026-05-08 07:07 39.02638 -23.63916 34583 ft 423 kts 42°
2026-05-08 07:07 39.04651 -23.61133 34749 ft 423 kts 41°
2026-05-08 07:07 39.06689 -23.58398 34916 ft 424 kts 41°
2026-05-08 07:07 39.08736 -23.55667 35077 ft 425 kts 41°
2026-05-08 07:08 39.10782 -23.52916 35232 ft 426 kts 41°
2026-05-08 07:08 39.12801 -23.50161 35409 ft 426 kts 41°
2026-05-08 07:08 39.14827 -23.47363 35583 ft 427 kts 42°
2026-05-08 07:08 39.16845 -23.44556 35735 ft 428 kts 42°
2026-05-08 07:09 39.18864 -23.41739 35899 ft 429 kts 43°
2026-05-08 07:09 39.20896 -23.38894 36024 ft 430 kts 43°
2026-05-08 07:09 39.22923 -23.36050 36137 ft 431 kts 43°
2026-05-08 07:09 39.24931 -23.33235 36267 ft 432 kts 43°
2026-05-08 07:10 39.26975 -23.30378 36393 ft 433 kts 43°
2026-05-08 07:10 39.29023 -23.27518 36523 ft 434 kts 43°
2026-05-08 07:10 39.31076 -23.24650 36650 ft 435 kts 43°
2026-05-08 07:10 39.33134 -23.21773 36769 ft 436 kts 43°
2026-05-08 07:11 39.35196 -23.18889 36901 ft 437 kts 43°
2026-05-08 07:11 39.37255 -23.16004 37031 ft 437 kts 43°
2026-05-08 07:11 39.39316 -23.13110 37168 ft 438 kts 43°
2026-05-08 07:11 39.41383 -23.10206 37318 ft 438 kts 43°
2026-05-08 07:12 39.43448 -23.07307 37446 ft 439 kts 43°
2026-05-08 07:12 39.45514 -23.04403 37581 ft 439 kts 43°
2026-05-08 07:12 39.47585 -23.01490 37708 ft 439 kts 43°
2026-05-08 07:12 39.49651 -22.98577 37851 ft 439 kts 44°
2026-05-08 07:13 39.51715 -22.95656 37980 ft 440 kts 44°
2026-05-08 07:13 39.53777 -22.92732 38117 ft 439 kts 44°
2026-05-08 07:13 39.55816 -22.89840 38254 ft 439 kts 44°
2026-05-08 07:13 39.57877 -22.86919 38390 ft 439 kts 44°
2026-05-08 07:14 39.59943 -22.83991 38508 ft 439 kts 44°
2026-05-08 07:14 39.62003 -22.81072 38622 ft 438 kts 44°
2026-05-08 07:14 39.64067 -22.78146 38764 ft 437 kts 44°
2026-05-08 07:14 39.66132 -22.75220 38781 ft 439 kts 44°
2026-05-08 07:15 39.70276 -22.69332 38783 ft 443 kts 44°
2026-05-08 07:15 39.74423 -22.63422 38783 ft 447 kts 44°
2026-05-08 07:16 39.78613 -22.57439 38776 ft 448 kts 44°
2026-05-08 07:16 39.82823 -22.51395 38778 ft 448 kts 44°
2026-05-08 07:17 39.87011 -22.45375 38790 ft 448 kts 44°
2026-05-08 07:17 39.91176 -22.39391 38784 ft 449 kts 44°
2026-05-08 07:18 39.95378 -22.33356 38783 ft 450 kts 44°
2026-05-08 07:18 39.99578 -22.27298 38780 ft 450 kts 44°
2026-05-08 07:19 40.03783 -22.21223 38793 ft 450 kts 44°
2026-05-08 07:19 40.07987 -22.15134 38779 ft 451 kts 44°
2026-05-08 07:20 40.12180 -22.09044 38786 ft 451 kts 45°
2026-05-08 07:20 40.16353 -22.02970 38784 ft 451 kts 45°
2026-05-08 07:21 40.20544 -21.96863 38782 ft 451 kts 45°
2026-05-08 07:21 40.24732 -21.90750 38787 ft 451 kts 45°
2026-05-08 07:22 40.28921 -21.84621 38792 ft 451 kts 45°
2026-05-08 07:22 40.32396 -21.79523 38804 ft 451 kts 45°
2026-05-08 07:23 40.36573 -21.73385 38794 ft 451 kts 45°
2026-05-08 07:23 40.40751 -21.67241 38791 ft 451 kts 45°
2026-05-08 07:24 40.44935 -21.61079 38782 ft 451 kts 45°
2026-05-08 07:24 40.49106 -21.54897 38785 ft 452 kts 45°
2026-05-08 07:25 40.53288 -21.48724 38780 ft 452 kts 45°
2026-05-08 07:26 40.59531 -21.39475 38781 ft 452 kts 45°
2026-05-08 07:26 40.63703 -21.33249 38778 ft 453 kts 45°
2026-05-08 07:27 40.67877 -21.27025 38778 ft 453 kts 45°
2026-05-08 07:27 40.72049 -21.20803 38783 ft 453 kts 45°
2026-05-08 07:28 40.76216 -21.14560 38779 ft 454 kts 45°
2026-05-08 07:28 40.80384 -21.08308 38785 ft 454 kts 46°
2026-05-08 07:29 40.84556 -21.02032 38786 ft 454 kts 46°
2026-05-08 07:29 40.88718 -20.95752 38779 ft 454 kts 46°
2026-05-08 07:30 40.92860 -20.89499 38781 ft 455 kts 46°
2026-05-08 07:30 40.97034 -20.83194 38778 ft 455 kts 46°
2026-05-08 07:31 41.01198 -20.76885 38783 ft 455 kts 46°
2026-05-08 07:31 41.05358 -20.70563 38778 ft 455 kts 46°
2026-05-08 07:32 41.09521 -20.64223 38775 ft 455 kts 46°
2026-05-08 07:32 41.13682 -20.57870 38771 ft 455 kts 46°
2026-05-08 07:33 41.17840 -20.51520 38778 ft 455 kts 46°
2026-05-08 07:33 41.21966 -20.45195 38783 ft 455 kts 47°
2026-05-08 07:34 41.26117 -20.38829 38763 ft 456 kts 47°
2026-05-08 07:34 41.30294 -20.32400 38767 ft 457 kts 46°
2026-05-08 07:35 41.34447 -20.25997 38767 ft 457 kts 47°
2026-05-08 07:35 41.38577 -20.19624 38776 ft 457 kts 47°
2026-05-08 07:36 41.42733 -20.13189 38785 ft 457 kts 47°
2026-05-08 07:36 41.46877 -20.06750 38768 ft 458 kts 48°
2026-05-08 07:37 41.51031 -20.00283 38777 ft 458 kts 47°
2026-05-08 07:37 41.55177 -19.93817 38778 ft 459 kts 47°
2026-05-08 07:38 41.59329 -19.87332 38772 ft 459 kts 47°
2026-05-08 07:38 41.63487 -19.80837 38778 ft 459 kts 47°
2026-05-08 07:39 41.67642 -19.74321 38783 ft 460 kts 48°
2026-05-08 07:39 41.71804 -19.67788 38783 ft 461 kts 48°
2026-05-08 07:40 41.75958 -19.61244 38783 ft 461 kts 49°
2026-05-08 07:40 41.80081 -19.54721 38787 ft 461 kts 48°
2026-05-08 07:41 41.84236 -19.48154 38785 ft 461 kts 48°
2026-05-08 07:41 41.88381 -19.41589 38790 ft 461 kts 49°
2026-05-08 07:42 41.92518 -19.35001 38791 ft 462 kts 49°
2026-05-08 07:42 41.96663 -19.28385 38790 ft 462 kts 49°
2026-05-08 07:43 42.00807 -19.21773 38795 ft 462 kts 49°
2026-05-08 07:43 42.04955 -19.15163 38796 ft 463 kts 49°
2026-05-08 07:44 42.09092 -19.08526 38797 ft 463 kts 49°
2026-05-08 07:44 42.13228 -19.01868 38796 ft 463 kts 49°
2026-05-08 07:45 42.17370 -18.95211 38798 ft 464 kts 49°
2026-05-08 07:45 42.21514 -18.88532 38800 ft 464 kts 49°
2026-05-08 07:46 42.25638 -18.81839 38801 ft 464 kts 49°
2026-05-08 07:46 42.29742 -18.75185 38806 ft 464 kts 49°
2026-05-08 07:47 42.33895 -18.68436 38808 ft 464 kts 49°
2026-05-08 07:47 42.38016 -18.61722 38808 ft 464 kts 50°
2026-05-08 07:48 42.42108 -18.55038 38811 ft 464 kts 50°
2026-05-08 07:48 42.46225 -18.48310 38810 ft 464 kts 50°
2026-05-08 07:49 42.50344 -18.41550 38812 ft 464 kts 50°
2026-05-08 07:49 42.54460 -18.34804 38811 ft 465 kts 50°
2026-05-08 07:50 42.58572 -18.28035 38814 ft 465 kts 50°
2026-05-08 07:50 42.62674 -18.21248 38821 ft 465 kts 50°
2026-05-08 07:51 42.66779 -18.14441 38819 ft 465 kts 50°
2026-05-08 07:51 42.70874 -18.07645 38821 ft 465 kts 50°
2026-05-08 07:52 42.74950 -18.00869 38818 ft 465 kts 50°
2026-05-08 07:52 42.79054 -17.94039 38816 ft 466 kts 50°
2026-05-08 07:53 42.83154 -17.87188 38825 ft 466 kts 50°
2026-05-08 07:53 42.87256 -17.80337 38826 ft 466 kts 51°
2026-05-08 07:54 42.91348 -17.73461 38828 ft 466 kts 51°
2026-05-08 07:54 42.95436 -17.66582 38824 ft 466 kts 51°
2026-05-08 07:55 42.99525 -17.59692 38823 ft 467 kts 51°
2026-05-08 07:55 43.03611 -17.52792 38826 ft 467 kts 51°
2026-05-08 07:56 43.07696 -17.45869 38827 ft 467 kts 51°
2026-05-08 07:56 43.11778 -17.38938 38827 ft 467 kts 51°
2026-05-08 07:57 43.15851 -17.32001 38828 ft 468 kts 51°
2026-05-08 07:57 43.19927 -17.25045 38827 ft 468 kts 51°
2026-05-08 07:58 43.24009 -17.18065 38832 ft 469 kts 51°
2026-05-08 07:58 43.28070 -17.11104 38836 ft 469 kts 51°
2026-05-08 07:59 43.32157 -17.04101 38834 ft 469 kts 51°
2026-05-08 07:59 43.36232 -16.97086 38836 ft 470 kts 52°
2026-05-08 08:00 43.40302 -16.90031 38839 ft 470 kts 52°
2026-05-08 08:00 43.44360 -16.83010 38842 ft 470 kts 52°
2026-05-08 08:01 43.48434 -16.75951 38844 ft 470 kts 52°
2026-05-08 08:01 43.51820 -16.70074 38843 ft 470 kts 52°
2026-05-08 08:02 43.55883 -16.62998 38839 ft 471 kts 52°
2026-05-08 08:02 43.59946 -16.55890 38840 ft 471 kts 52°
2026-05-08 08:03 43.63983 -16.48819 38841 ft 471 kts 52°
2026-05-08 08:03 43.68048 -16.41681 38845 ft 472 kts 53°
2026-05-08 08:04 43.72102 -16.34553 38844 ft 472 kts 52°
2026-05-08 08:04 43.76158 -16.27399 38845 ft 472 kts 53°
2026-05-08 08:05 43.80209 -16.20247 38848 ft 472 kts 53°
2026-05-08 08:05 43.84251 -16.13080 38851 ft 472 kts 53°
2026-05-08 08:06 43.88290 -16.05884 38854 ft 472 kts 53°
2026-05-08 08:06 43.92307 -15.98749 38852 ft 472 kts 53°
2026-05-08 08:07 43.96369 -15.91503 38868 ft 472 kts 53°
2026-05-08 08:07 44.00364 -15.84337 38863 ft 472 kts 53°
2026-05-08 08:08 44.04401 -15.77073 38867 ft 472 kts 53°
2026-05-08 08:08 44.08415 -15.69862 38865 ft 471 kts 53°
2026-05-08 08:09 44.12406 -15.62675 38864 ft 471 kts 53°
2026-05-08 08:09 44.16415 -15.55432 38870 ft 471 kts 53°
2026-05-08 08:10 44.20388 -15.48224 38873 ft 470 kts 53°
2026-05-08 08:10 44.24363 -15.40981 38873 ft 470 kts 53°
2026-05-08 08:11 44.28346 -15.33735 38876 ft 470 kts 53°
2026-05-08 08:11 44.32327 -15.26486 38878 ft 470 kts 53°
2026-05-08 08:12 44.36296 -15.19219 38876 ft 470 kts 54°
2026-05-08 08:12 44.40258 -15.11944 38877 ft 470 kts 54°
2026-05-08 08:13 44.44215 -15.04656 38883 ft 470 kts 54°
2026-05-08 08:13 44.48169 -14.97365 38886 ft 470 kts 54°
2026-05-08 08:14 44.52120 -14.90071 38888 ft 470 kts 54°
2026-05-08 08:14 44.56065 -14.82757 38877 ft 469 kts 54°
2026-05-08 08:15 44.59991 -14.75446 38887 ft 469 kts 54°
2026-05-08 08:15 44.63922 -14.68123 38886 ft 469 kts 54°
2026-05-08 08:16 44.67850 -14.60788 38892 ft 469 kts 54°
2026-05-08 08:16 44.71774 -14.53451 38896 ft 469 kts 54°